Home > Weather > Peterborough > Past weeks

Flag for Canada Weather for the Past 2 Weeks in Peterborough, Ontario, Canada

Now
41 °F

Clear.


Feels Like: 41 °F
Forecast: 34 / 60 °F
Wind: 2 mph from Southwest

Location: Peterborough Airport

Current Time: May 2, 2016 at 11:05:11 PM

Latest Report: May 2, 2016 at 10:00 PM


Visibility: 9 mi

Pressure: 30.01 "Hg

Humidity: 93%

Dew Point: 39 °F

Location of PeterboroughLocation

Historic Weather in Peterborough — Graph

°F

Peterborough Temperature Yesterday

Maximum temperature yesterday: 52 °F (at 3:00 AM)
Minimum temperature yesterday: 43 °F (at 7:58 AM)
Average temperature yesterday: 46 °F

High & Low Weather Summary for the Past Weeks

 TemperatureHumidityPressure
High73 °F (Apr 18, 1:00 PM)100% (Apr 20, 6:00 AM)30.37 "Hg (Apr 20, 6:00 AM)
Low25 °F (Apr 30, 5:00 AM)20% (Apr 20, 6:00 PM)29.78 "Hg (Apr 22, 6:00 AM)
Average45 °F65%30.08 "Hg
* Reported Apr 17 9:00 PM — May 2 9:00 PM, Peterborough, Weather by CustomWeather, © 2016

Note: Actual official high and low records may vary slightly from our data, if they occured in-between our weather recording intervals... More about our weather records

Advertising

Peterborough Weather History for the Previous 24 Hours

Scroll right to see more
 ConditionsComfort  
Time TempWeatherWind HumidityBarometerVisibility
9:00 PM
Mon, May 2
46 °FSunny.5 mph82%30.01 "Hg9 mi
8:00 PM48 °FSunny.8 mph76%29.99 "Hg9 mi
7:00 PM54 °FSunny.10 mph67%29.99 "Hg9 mi
6:00 PM57 °FPassing clouds.7 mph59%29.98 "Hg9 mi
5:00 PM55 °FPartly sunny.2 mph59%29.98 "Hg9 mi
4:00 PM54 °FOvercast.3 mph63%29.99 "Hg9 mi
3:00 PM54 °FOvercast.6 mph63%29.99 "Hg9 mi
2:00 PM52 °FOvercast.7 mph67%30.00 "Hg9 mi
1:00 PM50 °FOvercast.7 mph71%29.99 "Hg9 mi
12:00 PM50 °FOvercast.10 mph71%29.99 "Hg9 mi
11:00 AM48 °FOvercast.12 mph76%29.99 "Hg9 mi
10:02 AM46 °FOvercast.12 mph82%29.98 "Hg9 mi
9:00 AM43 °FOvercast.12 mph93%29.98 "Hg9 mi
8:00 AM41 °FOvercast.5 mph93%30.01 "Hg9 mi
7:00 AM39 °FOvercast.9 mph100%29.98 "Hg9 mi
6:04 AM39 °FMostly cloudy.7 mph93%29.99 "Hg9 mi
5:00 AM39 °FPassing clouds.7 mph100%29.99 "Hg9 mi
4:00 AM34 °FFog.5 mph100%30.03 "Hg4 mi
3:59 AM34 °FFog.3 mph100%30.03 "Hg5 mi
3:00 AM34 °FClear.2 mph100%30.03 "Hg7 mi
2:00 AM37 °FClear.No wind100%30.02 "Hg9 mi
1:00 AM41 °FClear.6 mph93%30.04 "Hg9 mi
12:00 AM43 °FOvercast.8 mph93%30.05 "Hg9 mi
11:00 PM
Sun, May 1
45 °FMostly cloudy.10 mph87%30.06 "Hg9 mi
Weather by CustomWeather, © 2016

See weather overviewHow to use our weather pages